COSMOS 1275 DEB

Satellite information

Favourite Embed

Satellite Type and Status

DEBRISIN ORBIT

Key statistics

Satellite COSMOS 1275 DEB at a glance.

Uptime

16166

Days in orbit

Revolutions

≈ 14.2

Per day

Orbit

LEO

Low Earth Orbit

Inclination

83.1

Latest

Satellite identification and parameters

Extended collection of information and parameters for COSMOS 1275 DEB.

Object identification

Identified? True

Debris? True

Object name: COSMOS 1275 DEB

International designator: 1981-053KD

Object number (NORAD): 15768

Object ID (CCSDS): 15768

Country: COMMONWEALTH OF INDEPENDENT STATES (CIS)

Current information (Y/N): Y

RCS size: SMALL

Orbital parameters

Period: 101.604 minutes

Inclination: 83.0589 deg

SMA: 7212.737 km

Apoapsis: 870.045 km

Periapsis: 799.16 km

RAAN: 64.2025 deg

Eccentricy: 0.00491387

Argument of periapsis: 90.4689 deg

Mean anomaly: 299.3966 deg

Mean motion: 14.17269966 rev/day

Mean motion (dot): 0.00005072 rev/day2

B* drag term: 0.0024738226 1/REarth

Two-line elements (TLE)

Creation date: Sept. 7, 2025, 3:09 a.m.

Reference frame: TEME

Reference center: EARTH

Epoch: Sept. 6, 2025, 11 a.m. UTC

TLE line 0: 0 COSMOS 1275 DEB

TLE line 1: 1 15768U 81053KD 25249.45902052 .00005072 00000-0 24738-2 0 9993

TLE line 2: 2 15768 83.0589 64.2025 0049139 90.4689 299.3966 14.17269966 53433

Live tracking on map

Real-time ground track for satellite COSMOS 1275 DEB.

In-orbit conjunctions

A list of the most updated potential collisions computed for object COSMOS 1275 DEB.

Target Orbit TCA Probability of collision Miss distance Type
DELTA 1 DEB SSO 2025-02-13 17:09:03 0.0001251069 94.0 (m) DEBRIS
SL-3 R/B LEO 2024-11-17 18:28:04 0.0004539042 119.0 (m) ROCKET BODY
THORAD AGENA D DEB SSO 2024-06-14 15:53:39 0.0007183258 78.0 (m) DEBRIS

Associated space launch

Navigation satellite providing location information for the Tsiklon-B navigation system

COSMOS 1275 DEB was lifted into orbit during the mission ‘Kosmos-3M | Parus 27’, on board a Kosmos-3M space rocket.

The launch took place on June 4, 1981, 3:41 p.m. from 132/2.

For more information about the launch, click the button.

Launch to space Kosmos-3M | Parus 27
Kosmos-3M | Parus 27

Agency: N/A

Status: Launch Successful

Launch date: June 4, 1981, 3:41 p.m. UTC

Rocket: Kosmos-3M

Launch pad: 132/2

Location: Plesetsk Cosmodrome, Russian Federation

...

Latest news about this satellite

There are no fresh news available about this satellite. Check back as we update our databases every day.


Newsletter sign-up

Weekly statistics, charts and insights to help you stay on top of the space industry.